Regional Weather Roundup
Issued by NWS State College, PA

Home | Current Version | Previous Version | Text Only | Print | Product List | Glossary On
Versions: 1 2 3 4 5 6 7 8 9 10 11 12 13 14 15 16 17 18 19 20 21 22 23 24 25 26 27 28 29 30 31 32 33 34 35 36 37 38 39 40 41 42 43 44 45 46 47 48 49 50
000
ASUS41 KCTP 302310
RWRCTP

REGIONAL WEATHER ROUNDUP
NATIONAL WEATHER SERVICE STATE COLLEGE PA
700 PM EDT SUN AUG 30 2015

Note: "fair" indicates few or no clouds below 12,000 feet with no
significant weather and/or obstructions to visibility.

* = STATION THAT DOES NOT REPORT PRECIPITATION /E.G. RAIN...SNOW...ETC/
    THUNDER OR FOG.

PAZ002>004-007>009-013>016-020>023-029>032-310000-
WESTERN PENNSYLVANIA

CITY           SKY/WX    TMP DP  RH WIND       PRES   REMARKS
ERIE           MOCLDY    78  65  63 CALM      30.03F
MEADVILLE      PTCLDY    75  66  73 CALM      30.07F
FRANKLIN*      PTCLDY    75  68  78 S5        30.10S
NEW CASTLE     FAIR      82  70  67 CALM      30.06F
BEAVER COUNTY  NOT AVBL
BUTLER*        MOCLDY    79  68  69 W3        30.09S
PITTSBURGH INT CLOUDY    82  66  58 SW5       30.07S
PITTSBURGH     MOCLDY    81  61  50 SW5       30.07S
INDIANA*       PTCLDY    75  66  73 CALM      30.12R
LATROBE        CLOUDY    75  66  73 SW9       30.09F
WASHINGTON CO* MOCLDY    79  64  61 SW5       30.09S
$$

PAZ004>006-010>012-017>019-024>028-033>037-041-042-045-046-049>053-310000-
CENTRAL PENNSYLVANIA

CITY           SKY/WX    TMP DP  RH WIND       PRES   REMARKS
BRADFORD       MOCLDY    72  63  73 SW5       30.11S
DUBOIS         LGT RAIN  73  66  78 SW7       30.10S
CLEARFIELD     MOCLDY    76  64  66 N7        30.09R
JOHNSTOWN      CLOUDY    76  60  57 SW5       30.13S
ALTOONA        MOCLDY    82  61  48 W5        30.09S
STATE COLLEGE  CLEAR     79  66  65 W5        30.07R
WILLIAMSPORT   CLOUDY    79  70  74 CALM      30.01S
SELINSGROVE    MOCLDY    79  71  76 S3        30.03S
FT INDIANTOWN  MOCLDY    79  71  78 CALM      30.03S
CAPITAL CITY   MOCLDY    83  67  58 S3        30.02S
HARRISBURG     MOCLDY    83  71  67 S3        30.02R
YORK           MOCLDY    78  66  66 W12G20    30.06R
$$

PAZ038>040-043-044-047-048-054-055-060>062-067>071-310000-
EASTERN PENNSYLVANIA

CITY           SKY/WX    TMP DP  RH WIND       PRES   REMARKS
SCRANTON       PTCLDY    82  63  52 SW8       30.04S
MOUNT POCONO   MOCLDY    73  65  75 W5        30.09F
ALLENTOWN      MOCLDY    82  63  52 W7        30.03S
QUAKERTOWN*    MOCLDY    84  64  51 SW3       30.04S
READING        MOCLDY    83  67  58 W5        30.03R
LANCASTER      PTCLDY    81  69  67 S9        30.04R
COATESVILLE    PTCLDY    79  68  69 CALM      30.07S
POTTSTOWN      LGT RAIN  76  72  87 S5        30.05S
BLUE BELL      PTCLDY    82  68  61 SW6       30.03S
DOYLESTOWN     PTCLDY    82  63  52 SW7       30.02S
WILLOW GROVE   NOT AVBL
NORTH PHILA    PTCLDY    87  62  43 SW14      30.04R
PHILADELPHIA   NOT AVBL
$$



USA.gov is the U.S. government's official web portal to all federal, state and local government web resources and services.